Location: Banios
(43.0451°N, 0.2335°E)
Time: 11:59:18
(UTC+00:00)

USA 305 - Pass Details

Date: 25 January 2021
Orbit: 565 x 578 km, 54.0° (Epoch: 24 February)

Event Time Altitude Azimuth Distance (km) Brightness Sun altitude
Exits shadow 06:22:40 13° 262° (W) 1,680 4.7 -10.8°
Maximum altitude 06:26:12 41° 331° (NNW) 823 3.4 -10.2°
Drops below altitude 10° 06:30:13 10° 43° (NE) 1,863 5.9 -9.5°
Sets 06:32:34 0° 51° (NE) 2,763 6.9 -9.0°
